{"data":{"norad_id":57121,"epoch":"2026-05-24T21:44:44.083392Z","epoch_age_seconds":80186,"freshness":"FRESH","line1":"1 57121U 23090W   26144.90606578 -.00002344  00000+0 -77758-4 0  9990","line2":"2 57121  43.0043 210.7040 0001584 293.9872  66.0814 15.26727885161806","mean_motion":15.26727885,"eccentricity":0.0001584,"inclination_deg":43.0043,"raan_deg":210.704,"arg_perigee_deg":293.9872,"mean_anomaly_deg":66.0814,"bstar":-7.7758e-5,"rev_number":16180,"period_min":94.31936196017,"perigee_km":484.51460533878,"apogee_km":486.68903779745,"semimajor_km":6863.7388215681,"source":"CELESTRAK","updated_at":"2026-05-25T13:38:18.243356Z"}}